Location: Saratoga Springs
(43.0831°N, 73.7850°W)
Time: 16:12:37
(UTC-04:00)

Tiros 1 - Pass Details

Date: 24 April 2024
Orbit: 624 x 657 km, 48.4° (Epoch: 28 May)

Event Time Altitude Azimuth Distance (km) Brightness Sun altitude
Rises 02:34:37 0° 285° (WNW) 2,927 - -29.3°
Reaches altitude 10° 02:37:03 10° 292° (WNW) 2,013 - -29.0°
Exits shadow 02:41:15 43° 356° (N) 890 8.1 -28.7°
Maximum altitude 02:41:28 43° 4° (N) 886 8.1 -28.6°
Drops below altitude 10° 02:45:51 10° 76° (ENE) 1,997 10.2 -28.2°
Sets 02:48:15 0° 84° (E) 2,902 11.0 -28.0°
